timestamp,gas_concentrations,,corrected_fluxes_and_quality_flags,,,,,,,,,,storage_terms,,,turbulence,,,footprint,,
ISOdate,CO2_1_1_1,H2O_1_1_1,Tau_1_1_1,QcTau_1_1_1,H_1_1_1,QcH_1_1_1,LE_1_1_1, QcLE_1_1_1,Fc_1_1_1, QcFc_1_1_1,E_1_1_1, QcE_1_1_1,Sa_1_1_1,Sw_1_1_1,Sc_1_1_1,ustar_1_1_1,MO_length_1_1_1,ZL_1_1_1,Fetchmax_1_1_1,Fetch70_1_1_1,Fetch90_1_1_1
yyyymmddHHMM,[µmol+1mol_a-1],[mmol+1mol_a-1],[kg+1m-1s-2],[#],[W+1m-2],[#],[W+1m-2],[#],[µmol+1s-1m-2],[#],[mmol+1s-1m-2],[#],[W+1m-2],[W+1m-2],[µmol+1s-1m-2],[m+1s-1],[m],[#],[m],[m],[m]
201207130030,370.85021175308407,16.760588883179942,9.14213355790386845E-002,0,-33.388132925512252,0,7.6135761624874059,0,2.5928042364215078,0,0.17250738166617832,0,-9999.,-9999.,-9999.,0.28477221212114651,58.653351368167620,0.36826540165482796,115.75194902624372,211.63148001064224,317.06252136076216
201207130100,374.68812031905310,17.234617159876475,0.17296455871704169,0,-48.419520239281489,0,-1.9240234458437298,0,3.6912808848914018,0,-4.35705127876053477E-002,0,-12.558031273256137,15.976112274010394,2.9291646895527323,0.39132510533590831,104.97113292689684,0.20577085716548854,114.47508796327440,209.29697075358521,313.56500109040672
201207130130,377.79144902625376,17.447636467111423,0.31401229387458163,0,-63.877942606341243,0,15.594520877588609,0,11.104117821862905,0,0.35298741516445803,0,-10.377551933004462,7.1955894660922803,2.3728067772749295,0.52681407169168137,194.16936562497654,0.11124308889033901,119.79189288580363,219.01778585992625,328.12855348413990
201207130200,380.92771900755980,17.152134410566884,0.39383732858689674,0,-59.122120087959836,0,28.614046896326339,0,10.224540603658767,0,0.64741667701821848,0,-9.7295432021726178,-10.001536850276667,2.4017304858163304,0.58949474655668288,293.93140482788664,7.34865334061462899E-002,114.74935371284995,209.79841601638370,314.31625746936936
201207130230,383.91945866818872,16.869230513104196,0.31624625522150718,0,-62.871277693123623,0,21.730124304869591,0,14.408534863198469,0,0.49147428189036535,0,-8.8613299594585246,-9.5918528620051084,2.2941719337051794,0.52785562002699071,198.43930135225887,0.10884940560064174,114.32385384993401,209.02046656075242,313.15074742388236
201207130300,386.21441652757733,16.655097734675525,0.28959423912985366,0,-70.578941081953772,0,30.992356846510944,0,20.134293089202334,0,0.70069641838351293,0,-8.7292514438424504,-7.2713621839757172,1.7619055928624379,0.50480871154067564,154.58544918496480,0.13972854569355450,116.71334445867329,213.38921748247014,319.69593239526426
201207130330,386.23086353247726,16.396246120086772,0.27759035575423707,0,-66.407146890943523,0,25.580531373239339,0,16.010118116305510,0,0.57818491722041199,0,-6.3202036322801067,-8.7996212204975688,1.26373821489865167E-002,0.49400516736020372,153.95031551057843,0.14030500638055396,116.43819828046281,212.88616251532866,318.94226438586935
201207130400,385.76918187234355,16.169101844211102,0.26227163001755083,0,-67.396193974133027,0,25.652450405243577,0,13.962642038674158,0,0.57973697339157360,0,-2.9478577464310667,-7.7254589193810217,-0.35486834065179518,0.48007493119753214,139.20184545908367,0.15517035660528655,120.01193730930768,219.42009724566105,328.73128925070353
201207130430,386.24643896260432,16.133364749375350,0.11963626685906133,0,-38.793478332264108,0,9.2878162255887240,0,5.1075893453153238,0,0.20985029266430275,0,-5.6897365120981913,-1.2165253557403655,0.36707116938403117,0.32413446963770992,74.420256062200693,0.29024355925282830,104.25881405326449,190.61836373264157,285.58104408519455
201207130500,387.95473937079254,16.062611195102576,0.15866078255211513,0,-46.140875390028526,0,14.010160933317241,0,7.8311907546208177,0,0.31646448502385188,0,-6.1216251079242179,-2.4112274861070122,1.3150310994387360,0.37310906095822333,95.425699250102653,0.22635411812271070,114.21739316069699,208.82582246693178,312.85913510254130
201207130530,389.70708667882752,16.041120431466680,0.20354696893983268,0,-59.340770984137251,0,19.390078259693084,0,12.012404502700619,0,0.43787666674212944,0,-5.8870911549320066,-0.73323256385719870,1.3501509425455014,0.42241211436325382,107.67031087498751,0.20061240489106658,118.55122769654986,216.74945420410307,324.73017931957060
201207130600,391.08759619368510,15.902127369832160,0.20382025974096626,0,-57.363718488372498,0,22.290165160322616,0,10.937200156027552,0,0.50327585242314976,0,-4.2692890976783149,-4.7455533010319941,1.0642065932832592,0.42257523042882078,111.49640008342521,0.19372822785164528,115.14038161119555,210.51333972651119,315.38734346329716
201207130630,392.23711518237292,15.778379781152232,0.22363142641211328,0,-51.948079006679777,0,16.153143670588197,0,8.6304806832186660,0,0.36468499721125869,0,-1.7184911498820759,-4.2261121381400164,0.88630104766960194,0.44258559070238740,141.44026014654062,0.15271465124301314,116.39962149346542,212.81563184526229,318.83659658973909
201207130700,392.40320228330137,15.572754995059581,0.20090461584307295,0,-48.331161054448849,0,25.970314269773731,0,6.1446710551293169,0,0.58637444798668326,0,1.9878600311649157,-7.0191682146793797,0.12801000761561929,0.41955352423686787,129.49493935997927,0.16680188512969438,108.52835333590565,198.42444324102254,297.27597364267530
201207130730,390.74298348965823,15.540937735781137,0.17586094196680344,0,-25.335586977193298,0,12.321564770798448,1,-0.88164428609835765,2,0.27830860347407183,1,8.7429283397925932,-1.0843140829009896,-1.2779634256669115,0.39278233314087613,202.70377393337304,0.10655943686129757,113.31483063860691,207.17565031899886,310.38687652420214
201207130800,389.95551971764246,15.797012402912276,0.19941323535329872,0,-25.337040928956949,1,26.620686622889654,1,-3.4470484886035750,0,0.60152861131686841,1,9.4421308470555481,8.7113236737719095,-0.60532018002928745,0.41856668068091418,245.31162753859888,8.80512685710395926E-002,113.85785236015998,208.16846721389317,311.87429714767899
201207130830,388.47007156446585,16.082100624692210,0.18098924120935794,0,9.3678137718263645,1,59.510496024368955,0,-4.3666743320001116,0,1.3457316647281765,0,17.508930828507474,9.6663213204184917,-1.1389491945044430,0.39929277543580177,-576.08129749108718,-3.74947079415196352E-002,113.91643243572528,208.27557027518341,312.03475705022481
201207130900,383.70462895858941,16.550232467073393,7.44557248264266919E-002,0,-1.3507058066263415,2,43.320537554983879,0,-4.3812759018346377,0,0.98051164349308628,0,20.962668674139163,15.810299768744876,-3.6427895582399810,0.25651384141419808,1059.5398925130810,2.03862074025054525E-002,102.05032926684434,186.58054918296932,279.53166210363935
201207130930,378.03263027910833,17.128483951562568,0.11999167558834567,0,-0.90202095465262189,2,68.924797967482405,0,-4.8027797234507323,1,1.5624654043942232,0,35.728830498723291,19.392568418043968,-4.3121077599551274,0.32656811362573351,3274.2144586553600,6.59700220396393800E-003,104.33236490833131,190.75283815354578,285.78251127215691
201207131000,373.26922923624858,17.145092193186471,0.21377643231715324,0,29.347528791973097,0,109.17360133294879,0,-6.9507588224608101,0,2.4767883789819067,0,17.708056639094302,0.55500361104896334,-3.6112750408940633,0.43650028981564232,-240.30826954417989,-8.98845472150050645E-002,114.08592080277130,208.58544906568571,312.49901194570606
201207131030,368.67071973704753,17.406080906945686,0.28738885811838677,0,57.956114899645442,0,151.27224556236430,0,-12.136114374739885,0,3.4359556400738076,0,27.087061877331010,8.6765328313530325,-3.4724009772116360,0.50713837709193021,-190.87427013173502,-0.11316349754784867,126.07450786539384,230.50440977989373,345.33760925318040
201207131100,365.92806711252956,17.154506261712267,0.43004400483671862,0,79.030361976238837,0,228.72475122200692,0,-11.153181422909981,0,5.2009619400043521,0,25.133538080983694,-8.3210823428748828,-2.0627864373023628,0.62157255305688852,-257.69073044363427,-8.38214085652749380E-002,121.90370094444779,222.87884451776307,333.91312293058508
201207131130,363.66909740531054,16.648374067247499,0.48788137080560501,0,90.667825320355931,0,175.37789435105853,0,-10.361755472752478,0,3.9893681117549282,0,8.2560877205627410,-16.711896693955346,-1.6966858842579737,0.66244051110118096,-271.85611073839999,-7.94537961325618852E-002,100.96496390778874,184.59615514708887,276.55867823395283
201207131200,360.36835568710586,17.278884328863647,0.52415688957909201,0,104.37616566988609,0,220.40426728919050,0,-8.7049699361020920,0,5.0166004534875954,0,13.501747782674002,20.762409389820064,-2.4739256738216184,0.68743317592461439,-263.92537809515727,-8.18413149803737527E-002,106.12632698910527,194.03277299206056,290.69645134263317
201207131230,356.79400682988376,17.422849698706997,0.82434773947781026,0,144.96599949542934,0,222.73125932885128,0,-13.121687100168094,0,5.0707117180834533,0,5.0896794533388388,4.7353142006005244,-2.6765505444018980,0.86251222607980105,-375.31141336796657,-5.75522065960267365E-002,117.01611503594995,213.94277866145475,320.52526791343706
201207131300,355.61570401551819,17.786502913618893,0.71926823548415453,0,151.53340288607941,0,208.03182883972801,0,-14.273717220803420,0,4.7375223281848315,0,6.9201033661711993,11.944493234543833,-0.88137087526488311,0.80616492760427017,-293.18612780278397,-7.36733356447531601E-002,104.88947636690185,191.77141558139917,287.30852586819015
201207131330,355.11090004075419,17.886301924761707,1.0891759098425795,0,182.68304990872736,0,313.52878690468464,0,-15.916717137050583,0,7.1418960912097091,0,5.9236160557172886,3.2738208762730938,-0.37721377745570950,0.99255418052316302,-453.86162779332403,-4.75915976968999052E-002,118.02694606241614,215.79090016585565,323.29409069886071
201207131400,354.68903168762080,17.546358230085708,1.0788831750128112,0,178.14712301202559,0,405.27008823111726,0,-14.775365440481217,0,9.2362637037482482,0,11.120146517509637,-11.125314080002315,-0.31465454609299703,0.98870829409301886,-459.95506397453568,-4.69611092295655966E-002,118.94825569456009,217.47534801005114,325.81770051605082
201207131430,354.23197720956369,17.639036711308357,0.75074242821500237,0,84.108433118794508,0,190.02031294572953,0,-10.527853689827936,0,4.3316771698131040,0,5.3703824642580225,3.0297607130042330,-0.34060690120819503,0.82512529779997057,-566.25051523956643,-3.81456606549162788E-002,109.35746158729776,199.94031755508158,299.54702959360191
201207131500,354.73272720691466,17.003174063298609,0.93893102525144012,0,149.66691432363791,0,276.27152855627844,0,-15.495414192913378,0,6.2982916593290108,0,1.5743172180859248,-20.781050500761566,0.37308842598631231,0.92275421838362170,-445.02189485720334,-4.85369377318635373E-002,113.43356504806935,207.39273468789384,310.71210846675808
201207131530,353.69939075341472,17.327602362755517,0.92265246201863638,0,166.05422409587351,0,390.79326768715151,1,-18.913985317572411,0,8.9136797488735908,1,11.470577506223471,10.577106679809596,-0.76842212031098145,0.91565408265239445,-391.89770734687687,-5.51164234826242300E-002,116.26662399297061,212.57246999698057,318.47229583112289
201207131600,354.92554550685247,17.031674306699593,0.80149321478970159,0,128.99670783435360,0,336.12290737720798,0,-13.871899257514759,0,7.6657569422409395,0,-2.7225327738938532,-9.6486359879109589,0.91176307625761122,0.85339192257601271,-408.25136945633409,-5.29085794097019016E-002,110.98340982086212,202.91306949562897,304.00075370687023
201207131630,354.93980260305301,17.092468420694772,0.80590066302076435,0,71.819090390986702,0,253.63481704146488,0,-13.159408726103504,0,5.7834650934209657,0,-3.9913439801391606,1.9833483187184622,1.06059063432259893E-002,0.85556771297021195,-738.79802384868424,-2.92366780943420224E-002,116.67616974150233,213.32125024321368,319.59410508560558
201207131700,354.66645997690392,17.605837184831284,0.37406585128093445,0,19.230286076462853,2,76.247657408988587,1,-3.2849738388558363,0,1.7376158197629921,1,-12.977384452491076,16.789582594701798,-0.20372535254680338,0.58239761664277478,-870.31917423026096,-2.48184811268851516E-002,105.85711938753435,193.54057563702810,289.95905001469356
201207131730,353.34175525044805,18.893335877346601,0.31196281256018327,0,-114.01527380042955,1,165.66967330872734,1,0.37024465021554054,2,3.7711557281813692,1,-25.661391506663637,42.321834340482553,-0.99121581580363216,0.53094276979013733,111.24424677496404,0.19416734461508500,120.17010094673684,219.70927081858645,329.16452395726998
201207131800,407.14945686194955,19.706432242538366,0.20533670666973558,0,24.506811042375727,2,-173.49559001039796,1,-195.77093470850389,1,-3.9396693487248520,1,-55.433256221112018,27.018047140541238,40.600156767024963,0.42902221597709844,-273.06480592105277,-7.91021015218083129E-002,129.54658739725056,236.85247852709816,354.84817300607233
201207131830,384.55311089519915,20.488546255781181,0.18645570556622856,0,-16.963987038771048,2,-93.467574381325903,2,-17.920491464424721,2,-2.1211213015538042,2,-14.001265990559181,26.055315190549003,-17.083191628650710,0.40848420785581185,340.49244955290095,6.34375300490887806E-002,117.23329886556829,214.33985996922684,321.12016807016761
201207131900,350.45959058004752,21.920985983208329,0.13560095892333895,1,-38.068204887794543,1,24.455140860819746,2,-10.594738579747295,1,0.55475673399617420,2,-9.0495295556008397,47.792971392104761,-25.804291279982035,0.34825129087039813,94.027166759619334,0.22972084286257877,148.35766451769683,271.24512698860946,406.37462756251523
201207131930,349.31761894513147,20.583755041052139,1.08203115978073583E-002,0,-7.7782356395515215,1,51.829785015969314,1,-2.7415877579575403,0,1.1769881238984083,1,24.091258990608221,-44.394717056789659,-0.86093995896927444,9.85421014008718288E-002,10.422138673152043,2.0725112836622195,416.78148906531135,3640.0000000000000,-9999.
201207132000,345.30351158137825,22.123568349466396,4.63773710975978193E-002,0,-5.8732787058245579,1,138.36243474819685,0,-8.6080322518891048,0,3.1432848001853730,0,9.0302204408545794,51.021394980524846,-3.0216125851306117,0.20422849551190494,122.88947848641997,0.17576769196222874,107.16503994094367,195.93187154852586,293.54164704128442
201207132030,343.21895350931089,23.920185395769082,0.13189987999260214,0,-9.5432445861033113,0,69.793139369149543,0,-4.3691744870974274,0,1.5853418909892094,0,-2.8926701074876111,59.568811985080217,-1.5699565132601163,0.34444697576330924,362.97670880186109,5.95079504448062027E-002,119.93026042272666,219.27076584748406,328.50756360449083
201207132100,353.30050314529518,21.206421623118935,0.71577070193359904,0,-114.74226207124281,1,132.91304986016189,1,1.7083583159419051,2,3.0149179311649594,1,-31.661443921939082,-90.579456984840604,7.6329573568539635,0.79986451671514769,377.96383643629184,5.71483245689850955E-002,118.42356947519642,216.51605426096751,324.38050367371534
201207132130,357.85550027297154,19.382619030195041,0.33524500524134154,0,-56.623704122786769,0,51.389448685812276,0,0.74171918169043405,0,1.1640800710251162,0,-31.667587065976736,-61.248752874914373,3.4651052018537252,0.54591915560849624,243.40724442705923,8.87401689741932759E-002,115.05228272348184,210.35226686207142,315.14602696104754
201207132200,360.50863004926049,19.256075655385683,0.38832192159306639,0,-67.664658577880829,0,39.510849664896369,0,3.4376754149744064,0,0.89437614816322297,0,-16.181237098005116,-4.2623987770713807,2.0229120401480944,0.58686413358063427,253.00108415715164,8.53751282211231977E-002,126.04084701415252,230.44286700824674,345.24540696669192
201207132230,362.24628326114771,19.822979116552563,0.19267473969026350,0,-46.057070549735215,0,9.3168562066419405,1,3.9953213928893723,0,0.21081366127126908,1,-9.2744067295685841,19.130363671222607,1.3268034224591065,0.41313159946307043,129.68439193173481,0.16655820857277975,116.02951930655492,212.13896700955152,317.82282936136721
201207132300,363.21227031011267,20.127978113405653,0.17389432340323865,0,-44.104908968638902,0,14.642286429551145,0,5.6126532803205045,0,0.33130568147124506,0,-0.49833330477469656,10.292571175839472,0.73759295029327832,0.39250299201689748,116.13470082889943,0.18599092128220276,120.44851742014903,220.21830492836381,329.92714981187589
201207132330,365.41095970814177,20.293654962723679,0.12505850383789818,0,-34.698331707192445,0,11.987892647344136,0,4.2957275637218384,0,0.27116960190521766,0,-6.4837081131925371,5.5970454270550958,1.6801925142253018,0.33273289367295705,89.919030156729960,0.24021611401225013,119.41125792421387,218.32186375284562,327.08593535412166
201207140000,368.15400027537686,20.236648755133547,0.13444834155125288,0,-40.862749118449393,0,17.583022345524459,0,7.2489979115250591,0,0.39777570961309527,0,2.4775798762290258,-1.9246610608699442,2.0951208148714415,0.34508119359133077,85.166214690435268,0.25362169821110792,114.03523374303538,208.49277695467987,312.36017223634968
